AAL7112 KMIA-MYNN

Flight info

Callsign AAL7112
Flight time 0h 34m
Altitude 21000
Route KLADA2 RAJAY
Aircraft A319/M-SDE3FGHIRWY/LB1

Departure

Time 2026-05-06 15:06
Airport Miami International Airport (KMIA)

Arrival

Time 2026-05-06 15:40
Airport Lynden Pindling International Airport (MYNN)
Time Latitude Longitude Altitude Speed Heading
2026-05-06 14:46 25.79817 -80.28317 15 ft 0 kts 178°
2026-05-06 14:53 25.79833 -80.28318 15 ft 4 kts 181°
2026-05-06 14:54 25.79859 -80.28315 15 ft 4 kts 194°
2026-05-06 14:54 25.79883 -80.28304 15 ft 4 kts 230°
2026-05-06 14:54 25.79890 -80.28290 15 ft 0 kts 268°
2026-05-06 15:00 25.79890 -80.28292 15 ft 1 kts 268°
2026-05-06 15:00 25.79895 -80.28299 16 ft 2 kts 308°
2026-05-06 15:00 25.79920 -80.28312 15 ft 6 kts 343°
2026-05-06 15:00 25.79974 -80.28316 15 ft 10 kts 357°
2026-05-06 15:01 25.80031 -80.28357 15 ft 12 kts 284°
2026-05-06 15:01 25.80031 -80.28455 15 ft 14 kts 267°
2026-05-06 15:01 25.80027 -80.28562 18 ft 14 kts 268°
2026-05-06 15:01 25.80023 -80.28663 21 ft 13 kts 268°
2026-05-06 15:02 25.80019 -80.28764 23 ft 14 kts 266°
2026-05-06 15:02 25.80013 -80.28877 21 ft 16 kts 267°
2026-05-06 15:02 25.80007 -80.29015 22 ft 19 kts 267°
2026-05-06 15:02 25.80000 -80.29166 22 ft 20 kts 267°
2026-05-06 15:03 25.79994 -80.29331 19 ft 23 kts 267°
2026-05-06 15:03 25.79987 -80.29509 14 ft 23 kts 268°
2026-05-06 15:03 25.79980 -80.29669 14 ft 17 kts 267°
2026-05-06 15:03 25.79974 -80.29809 14 ft 19 kts 266°
2026-05-06 15:04 25.79970 -80.29899 12 ft 11 kts 267°
2026-05-06 15:04 25.79985 -80.29991 11 ft 13 kts 285°
2026-05-06 15:04 25.80011 -80.30091 14 ft 13 kts 290°
2026-05-06 15:04 25.80071 -80.30074 13 ft 13 kts 70°
2026-05-06 15:05 25.80080 -80.29900 12 ft 45 kts 87°
2026-05-06 15:05 25.80104 -80.29344 18 ft 99 kts 87°
2026-05-06 15:05 25.80143 -80.28386 16 ft 149 kts 87°
2026-05-06 15:05 25.80194 -80.27294 349 ft 158 kts 87°
2026-05-06 15:06 25.80246 -80.26152 978 ft 153 kts 89°
2026-05-06 15:06 25.80243 -80.24965 1531 ft 157 kts 103°
2026-05-06 15:06 25.79749 -80.23886 2051 ft 160 kts 133°
2026-05-06 15:06 25.79033 -80.22940 2558 ft 166 kts 122°
2026-05-06 15:07 25.78468 -80.21720 2795 ft 190 kts 116°
2026-05-06 15:07 25.77839 -80.20319 3063 ft 216 kts 116°
2026-05-06 15:07 25.77128 -80.18741 3505 ft 240 kts 116°
2026-05-06 15:07 25.76333 -80.17012 4007 ft 264 kts 117°
2026-05-06 15:08 25.75445 -80.15191 4876 ft 272 kts 118°
2026-05-06 15:08 25.74520 -80.13340 5797 ft 277 kts 118°
2026-05-06 15:08 25.73579 -80.11458 6690 ft 282 kts 117°
2026-05-06 15:08 25.72828 -80.09433 7547 ft 286 kts 110°
2026-05-06 15:09 25.72134 -80.07343 8377 ft 291 kts 109°
2026-05-06 15:09 25.71446 -80.05247 9167 ft 295 kts 109°
2026-05-06 15:09 25.70737 -80.03088 9927 ft 300 kts 109°
2026-05-06 15:09 25.70005 -80.00867 10394 ft 317 kts 109°
2026-05-06 15:10 25.69218 -79.98489 10600 ft 340 kts 109°
2026-05-06 15:10 25.68384 -79.95976 10997 ft 353 kts 109°
2026-05-06 15:10 25.67524 -79.93400 11601 ft 359 kts 109°
2026-05-06 15:10 25.66652 -79.90786 12241 ft 363 kts 109°
2026-05-06 15:11 25.65771 -79.88145 12892 ft 367 kts 108°
2026-05-06 15:11 25.64883 -79.85476 13499 ft 371 kts 108°
2026-05-06 15:11 25.63985 -79.82776 14083 ft 376 kts 108°
2026-05-06 15:11 25.63077 -79.80042 14658 ft 380 kts 108°
2026-05-06 15:12 25.62159 -79.77282 15225 ft 384 kts 108°
2026-05-06 15:12 25.61228 -79.74492 15778 ft 388 kts 108°
2026-05-06 15:12 25.60285 -79.71673 16323 ft 392 kts 108°
2026-05-06 15:12 25.59358 -79.68818 16852 ft 395 kts 106°
2026-05-06 15:13 25.58530 -79.65901 17354 ft 398 kts 103°
2026-05-06 15:13 25.57771 -79.62935 17853 ft 402 kts 102°
2026-05-06 15:13 25.57038 -79.59926 18370 ft 405 kts 102°
2026-05-06 15:13 25.56304 -79.56901 18873 ft 409 kts 102°
2026-05-06 15:14 25.55551 -79.53848 19359 ft 413 kts 102°
2026-05-06 15:14 25.54775 -79.50775 19834 ft 416 kts 103°
2026-05-06 15:14 25.53973 -79.47677 20316 ft 420 kts 103°
2026-05-06 15:14 25.53155 -79.44559 20780 ft 424 kts 104°
2026-05-06 15:15 25.52327 -79.41416 21053 ft 427 kts 104°
2026-05-06 15:15 25.51498 -79.38252 21116 ft 430 kts 104°
2026-05-06 15:15 25.50666 -79.35065 21118 ft 431 kts 104°
2026-05-06 15:15 25.49832 -79.31874 21120 ft 432 kts 104°
2026-05-06 15:16 25.48997 -79.28683 21118 ft 432 kts 104°
2026-05-06 15:16 25.48160 -79.25490 21119 ft 432 kts 104°
2026-05-06 15:16 25.47323 -79.22297 21118 ft 432 kts 104°
2026-05-06 15:16 25.46487 -79.19108 21118 ft 431 kts 104°
2026-05-06 15:17 25.45650 -79.15925 21119 ft 431 kts 104°
2026-05-06 15:17 25.44811 -79.12738 21120 ft 431 kts 104°
2026-05-06 15:17 25.43976 -79.09551 21120 ft 431 kts 104°
2026-05-06 15:17 25.43143 -79.06366 21120 ft 431 kts 104°
2026-05-06 15:18 25.42310 -79.03181 21119 ft 431 kts 104°
2026-05-06 15:18 25.41473 -79.00000 21116 ft 431 kts 104°
2026-05-06 15:18 25.40634 -78.96821 21119 ft 431 kts 104°
2026-05-06 15:18 25.39790 -78.93637 21117 ft 431 kts 104°
2026-05-06 15:19 25.38946 -78.90456 21115 ft 431 kts 104°
2026-05-06 15:19 25.38105 -78.87273 21114 ft 431 kts 104°
2026-05-06 15:19 25.37265 -78.84091 21114 ft 431 kts 104°
2026-05-06 15:19 25.36436 -78.80955 21112 ft 431 kts 104°
2026-05-06 15:20 25.35594 -78.77780 21112 ft 431 kts 104°
2026-05-06 15:20 25.34751 -78.74605 21114 ft 431 kts 104°
2026-05-06 15:20 25.33906 -78.71427 21115 ft 431 kts 104°
2026-05-06 15:20 25.33062 -78.68248 21116 ft 431 kts 104°
2026-05-06 15:21 25.32216 -78.65072 21119 ft 431 kts 104°
2026-05-06 15:21 25.31370 -78.61897 21120 ft 431 kts 104°
2026-05-06 15:21 25.30523 -78.58716 21122 ft 431 kts 104°
2026-05-06 15:21 25.29676 -78.55543 21122 ft 430 kts 104°
2026-05-06 15:22 25.28827 -78.52371 21122 ft 430 kts 104°
2026-05-06 15:22 25.27982 -78.49201 21121 ft 430 kts 103°
2026-05-06 15:22 25.27422 -78.45973 21118 ft 427 kts 93°
2026-05-06 15:22 25.27379 -78.42709 21118 ft 423 kts 83°
2026-05-06 15:23 25.27727 -78.39486 21119 ft 422 kts 79°
2026-05-06 15:23 25.28099 -78.36259 21118 ft 423 kts 80°
2026-05-06 15:23 25.28463 -78.33034 21118 ft 423 kts 80°
2026-05-06 15:23 25.28823 -78.29809 21117 ft 423 kts 80°
2026-05-06 15:24 25.29178 -78.26622 21120 ft 423 kts 80°
2026-05-06 15:24 25.29518 -78.23387 21116 ft 424 kts 83°
2026-05-06 15:24 25.29430 -78.20112 21118 ft 428 kts 96°
2026-05-06 15:24 25.28773 -78.16915 20619 ft 428 kts 107°
2026-05-06 15:25 25.27506 -78.13947 20014 ft 424 kts 120°
2026-05-06 15:25 25.25955 -78.11244 19520 ft 411 kts 121°
2026-05-06 15:25 25.24446 -78.08592 18986 ft 406 kts 121°
2026-05-06 15:25 25.22964 -78.05952 18442 ft 403 kts 121°
2026-05-06 15:26 25.21502 -78.03332 17831 ft 401 kts 120°
2026-05-06 15:26 25.20042 -78.00709 17223 ft 399 kts 120°
2026-05-06 15:26 25.18596 -77.98110 16679 ft 395 kts 121°
2026-05-06 15:26 25.17162 -77.95542 16122 ft 391 kts 121°
2026-05-06 15:27 25.15756 -77.93032 15586 ft 387 kts 121°
2026-05-06 15:27 25.14330 -77.90488 15034 ft 383 kts 121°
2026-05-06 15:27 25.12934 -77.88002 14498 ft 379 kts 122°
2026-05-06 15:27 25.11552 -77.85548 13960 ft 374 kts 122°
2026-05-06 15:28 25.10188 -77.83127 13433 ft 370 kts 122°
2026-05-06 15:28 25.08835 -77.80726 12903 ft 366 kts 122°
2026-05-06 15:28 25.07498 -77.78352 12379 ft 362 kts 122°
2026-05-06 15:28 25.06189 -77.76032 11871 ft 358 kts 122°
2026-05-06 15:29 25.04878 -77.73710 11345 ft 355 kts 122°
2026-05-06 15:29 25.03581 -77.71411 10840 ft 351 kts 122°
2026-05-06 15:29 25.02298 -77.69141 10468 ft 344 kts 122°
2026-05-06 15:29 25.01063 -77.66955 10334 ft 327 kts 122°
2026-05-06 15:30 24.99899 -77.64888 10091 ft 310 kts 122°
2026-05-06 15:30 24.98780 -77.62905 9744 ft 300 kts 123°
2026-05-06 15:30 24.97673 -77.60944 9615 ft 300 kts 123°
2026-05-06 15:30 24.96570 -77.58992 9418 ft 301 kts 123°
2026-05-06 15:31 24.95456 -77.57026 8928 ft 302 kts 123°
2026-05-06 15:31 24.94353 -77.55080 8436 ft 299 kts 123°
2026-05-06 15:31 24.93258 -77.53147 7949 ft 294 kts 123°
2026-05-06 15:32 24.91103 -77.49351 6802 ft 289 kts 123°
2026-05-06 15:32 24.90041 -77.47485 6276 ft 285 kts 123°
2026-05-06 15:32 24.88998 -77.45648 5765 ft 281 kts 122°
2026-05-06 15:32 24.87982 -77.43858 5496 ft 267 kts 122°
2026-05-06 15:33 24.87037 -77.42191 5431 ft 247 kts 123°
2026-05-06 15:33 24.86155 -77.40630 5362 ft 236 kts 122°
2026-05-06 15:33 24.85465 -77.39006 5269 ft 235 kts 102°
2026-05-06 15:33 24.85492 -77.37229 5153 ft 235 kts 75°
2026-05-06 15:34 24.86246 -77.35652 4759 ft 235 kts 47°
2026-05-06 15:34 24.87395 -77.34417 4396 ft 233 kts 44°
2026-05-06 15:34 24.88555 -77.33175 4038 ft 232 kts 44°
2026-05-06 15:34 24.89829 -77.32163 3674 ft 222 kts 15°
2026-05-06 15:35 24.91288 -77.32252 3378 ft 207 kts 331°
2026-05-06 15:35 24.92344 -77.33234 3110 ft 196 kts 314°
2026-05-06 15:35 24.93162 -77.34145 2862 ft 191 kts 314°
2026-05-06 15:36 24.93424 -77.34434 2796 ft 187 kts 314°
2026-05-06 15:36 24.94322 -77.35434 2535 ft 180 kts 314°
2026-05-06 15:37 24.95168 -77.36383 2298 ft 165 kts 314°
2026-05-06 15:37 24.95681 -77.36959 2138 ft 153 kts 315°
2026-05-06 15:37 24.96401 -77.37763 1930 ft 143 kts 315°
2026-05-06 15:37 24.97090 -77.38530 1732 ft 139 kts 316°
2026-05-06 15:38 24.97763 -77.39281 1539 ft 137 kts 316°
2026-05-06 15:38 24.98426 -77.40022 1365 ft 135 kts 316°
2026-05-06 15:38 24.99081 -77.40754 1182 ft 133 kts 317°
2026-05-06 15:38 24.99731 -77.41481 1001 ft 133 kts 317°
2026-05-06 15:39 25.00379 -77.42205 820 ft 132 kts 317°
2026-05-06 15:39 25.01026 -77.42928 649 ft 132 kts 316°
2026-05-06 15:39 25.01673 -77.43652 465 ft 133 kts 317°
2026-05-06 15:39 25.02310 -77.44390 284 ft 132 kts 315°
2026-05-06 15:40 25.02956 -77.45104 70 ft 131 kts 317°
2026-05-06 15:40 25.03562 -77.45767 13 ft 108 kts 315°
2026-05-06 15:40 25.03894 -77.46136 12 ft 41 kts 315°
2026-05-06 15:40 25.04104 -77.46368 12 ft 44 kts 315°
2026-05-06 15:41 25.04318 -77.46604 11 ft 42 kts 314°
2026-05-06 15:41 25.04480 -77.46705 13 ft 23 kts 29°
2026-05-06 15:41 25.04523 -77.46662 14 ft 0 kts 45°
2026-05-06 15:42 25.04536 -77.46650 12 ft 5 kts 37°
2026-05-06 15:42 25.04586 -77.46647 12 ft 10 kts 326°
2026-05-06 15:42 25.04649 -77.46713 12 ft 15 kts 314°
2026-05-06 15:42 25.04738 -77.46808 12 ft 19 kts 313°
2026-05-06 15:43 25.04831 -77.46912 12 ft 18 kts 314°
2026-05-06 15:43 25.04929 -77.46905 12 ft 17 kts 62°
2026-05-06 15:43 25.04965 -77.46811 12 ft 11 kts 64°
2026-05-06 15:43 25.05014 -77.46747 12 ft 8 kts 99°
2026-05-06 15:44 25.05005 -77.46719 12 ft 1 kts 112°
2026-05-06 15:44 25.05002 -77.46713 12 ft 0 kts 112°